Home > Weather > Winterthur > Past weeks

Flag for Switzerland Weather for the Past 2 Weeks in Winterthur, Switzerland

Now
63 °F

Sunny.


Feels Like: 63 °F
Forecast: 39 / 71 °F
Wind: 2 mph from North

Location: Zurich-Kloten

Current Time: May 6, 2016 at 11:43:21 AM

Latest Report: May 6, 2016 at 11:20 AM


Visibility: 10 mi

Pressure: 30.04 "Hg

Humidity: 52%

Dew Point: 45 °F

Location of WinterthurLocation

Historic Weather in Winterthur — Graph

°F

Winterthur Temperature Yesterday

Maximum temperature yesterday: 66 °F (at 4:50 PM)
Minimum temperature yesterday: 37 °F (at 3:50 AM)
Average temperature yesterday: 53 °F

High & Low Weather Summary for the Past Weeks

 TemperatureHumidityPressure
High68 °F (Apr 21, 3:50 PM)100% (Apr 25, 3:20 AM)30.33 "Hg (Apr 25, 3:20 AM)
Low27 °F (Apr 28, 5:50 AM)28% (May 5, 4:50 PM)29.65 "Hg (Apr 26, 5:50 PM)
Average47 °F71%30.01 "Hg
* Reported Apr 21 10:20 AM — May 6 10:20 AM, Winterthur, Weather by CustomWeather, © 2016

Note: Actual official high and low records may vary slightly from our data, if they occured in-between our weather recording intervals... More about our weather records

Advertising

Winterthur Weather History for the Previous 24 Hours

Scroll right to see more
 ConditionsComfort  
Time TempWeatherWind HumidityBarometerVisibility
10:20 AM
Fri, May 6
59 °FSunny.2 mph55%30.04 "Hg10 mi
9:50 AM57 °FSunny.1 mph59%30.04 "Hg10 mi
9:20 AM54 °FSunny.1 mph77%30.04 "Hg10 mi
8:50 AM52 °FSunny.2 mph77%30.07 "Hg10 mi
8:20 AM48 °FSunny.3 mph87%30.07 "Hg10 mi
7:50 AM48 °FSunny.No wind87%30.07 "Hg10 mi
7:20 AM43 °FSunny.No wind100%30.07 "Hg10 mi
6:50 AM39 °FClear.1 mph100%30.07 "Hg10 mi
6:20 AM39 °FFog.No wind100%30.04 "HgN/A
5:50 AM39 °FFog.No wind93%30.04 "HgN/A
5:20 AM39 °FFog.No wind93%30.04 "HgN/A
4:50 AM39 °FFog.No wind93%30.04 "HgN/A
4:20 AM41 °FFog.No wind93%30.04 "HgN/A
3:50 AM43 °FFog.No wind93%30.04 "HgN/A
3:20 AM43 °FFog.1 mph93%30.04 "HgN/A
2:50 AM43 °FClear.1 mph93%30.04 "Hg10 mi
1:50 AM45 °FClear.2 mph87%30.04 "Hg10 mi
1:20 AM45 °FClear.No wind87%30.07 "Hg10 mi
12:50 AM46 °FClear.3 mph82%30.04 "Hg10 mi
12:20 AM46 °FPassing clouds.3 mph82%30.04 "HgN/A
11:50 PM
Thu, May 5
48 °FPassing clouds.5 mph76%30.04 "HgN/A
11:20 PM52 °FPassing clouds.7 mph67%30.04 "HgN/A
10:50 PM52 °FPassing clouds.6 mph67%30.04 "HgN/A
10:20 PM55 °FPassing clouds.5 mph59%30.04 "HgN/A
9:50 PM57 °FPassing clouds.3 mph51%30.04 "HgN/A
9:20 PM59 °FSunny.6 mph48%30.04 "Hg10 mi
8:50 PM61 °FSunny.8 mph45%30.04 "Hg10 mi
8:20 PM63 °FSunny.9 mph39%30.04 "Hg10 mi
7:50 PM64 °FSunny.7 mph37%30.04 "Hg10 mi
7:20 PM66 °FSunny.9 mph32%30.04 "Hg10 mi
6:50 PM66 °FPassing clouds.12 mph32%30.04 "HgN/A
6:20 PM66 °FPassing clouds.10 mph32%30.04 "HgN/A
5:50 PM66 °FPassing clouds.10 mph30%30.07 "HgN/A
5:20 PM66 °FPassing clouds.13 mph32%30.07 "HgN/A
4:50 PM66 °FPassing clouds.14 mph28%30.07 "HgN/A
4:20 PM64 °FPassing clouds.13 mph30%30.07 "HgN/A
3:50 PM64 °FPassing clouds.13 mph32%30.07 "HgN/A
3:20 PM64 °FPassing clouds.10 mph34%30.09 "HgN/A
2:50 PM63 °FPassing clouds.13 mph34%30.09 "HgN/A
2:20 PM63 °FSunny.12 mph37%30.12 "Hg10 mi
1:50 PM61 °FPassing clouds.14 mph34%30.12 "HgN/A
1:20 PM59 °FPassing clouds.14 mph39%30.12 "HgN/A
12:50 PM57 °FPassing clouds.12 mph36%30.12 "HgN/A
12:20 PM55 °FPassing clouds.14 mph41%30.12 "HgN/A
11:50 AM55 °FPassing clouds.13 mph41%30.15 "HgN/A
11:20 AM54 °FPassing clouds.14 mph47%30.15 "HgN/A
Weather by CustomWeather, © 2016

See weather overviewHow to use our weather pages